Tracking 28799 objects as of 18-Apr-2024
HD Live streaming from Space Station
objects crossing your sky now

DMSP 5D-2 F11 DEB

Track DMSP 5D-2 F11 DEB now!
10-day predictions


NORAD ID: 28312
Int'l Code: 1991-082Z
Perigee: 814.2 km
Apogee: 828.9 km
Inclination: 98.7 °
Period: 101.2 minutes
Semi major axis: 7192 km
RCS: 0.0099 m2 (small)
Launch date: November 28, 1991
Source: United States (US)
Launch site: AIR FORCE WESTERN TEST RANGE (AFWTR)

Note: This is SATELLITE DEBRIS
Your satellite tracking list
Your tracking list is empty




NASA's NSSDC Master Catalog

Two Line Element Set (TLE):
1 28312U 91082Z   24108.31089169  .00002549  00000-0  11450-2 0  9991
2 28312  98.6871 142.0278 0010171 245.4640 114.5478 14.23245302 34605
Source of the keplerian elements: AFSPC